Location: Aula-Vintri
(58.3875°N, 22.4322°E)
Time: 15:28:17
(UTC+00:00)

Cosmos 2298 Rocket - Pass Details

Date: 13 October 2019
Orbit: 777 x 783 km, 74.0° (Epoch: 13 November)

Event Time Altitude Azimuth Distance (km) Brightness Sun altitude
Rises 19:14:05 0° 328° (NNW) 3,282 8.3 -28.7°
Reaches altitude 10° 19:16:29 10° 331° (NNW) 2,349 7.3 -28.9°
Enters shadow 19:20:55 60° 353° (N) 898 4.4 -29.4°
